sat.trackr.live / text

‹ back to catalog

STARLINK-3507

NORAD 51753 · 2022-016AR

PAYLOAD ACTIVE UNKNOWN

§ Identity

Operator
Country
US
Launch date
2022-02-21
Launch site
AFETR
Launch vehicle
Mass (kg)
RCS (m²)

Purposes: comms

External: N2YO · Heavens-Above · Gunter

§ Orbital elements

Epoch: 2026-05-24T21:09:29.155680Z

Period
95.44 min
Inclination
53.2142°
Eccentricity
0.0000918
Mean motion
15.08857442 rev/d
Perigee alt
539.1 km
Apogee alt
540.3 km
Semi-major
6,917.8 km
B*
1.9622e-4
RAAN
327.0917°
Arg perigee
105.8582°
Mean anomaly
254.2512°
Rev number
23,520

§ Raw data

STARLINK-35071 51753U 22016AR  26144.88158745  .00002838  00000+0  19622-3 0  99982 51753  53.2142 327.0917 0000918 105.8582 254.2512 15.08857442235203

JSON: /api/v1/satellites/51753 · /tle

For live sub-satellite position, see the globe view (requires WebGL).

§ Visibility from observer

Set your observer location to see the next 7 days of passes ≥ 10°. The values pass through the URL so the page stays shareable.

No JS? Fill the form by hand. The geolocation button needs JavaScript.